This is the latest recevied weather packets stored in our database for station/object W5MAI. If no packets are shown the sender has not sent any weather packets the latest 1 day(s).
| Time | Temp. | Humidity | Pressure | Rain* | Wind** | Luminosity | Snow |
|---|---|---|---|---|---|---|---|
| 1778103239 | 24.44° C | 71% | 1012.2 hPa | 0 mm | - | 276 W/m² | - |
| 1778098461 | 25.56° C | 73% | 1012 hPa | 0 mm | - | 204 W/m² | - |
| 1778097813 | 27.22° C | 72% | 1012.1 hPa | 0 mm | - | 88 W/m² | - |
| 1778097236 | 27.78° C | 74% | 1012 hPa | 0 mm | - | 169 W/m² | - |
| 1778094234 | 27.78° C | 73% | 1011.9 hPa | 0 mm | - | 320 W/m² | - |
| 1778091240 | 27.78° C | 76% | 1012.5 hPa | 0 mm | - | 1007 W/m² | - |
| 1778090022 | 26.11° C | 78% | 1012.6 hPa | 0 mm | - | 911 W/m² | - |
| 1778088814 | 25° C | 80% | 1012.7 hPa | 0 mm | - | 937 W/m² | - |
| 1778084009 | 25.56° C | 83% | 1012.9 hPa | 0 mm | - | 257 W/m² | - |
| 1778082206 | 25° C | 85% | 1012.9 hPa | 0 mm | - | 193 W/m² | - |
| 1778080442 | 24.44° C | 87% | 1012.1 hPa | 0 mm | - | 206 W/m² | - |
| 1778079804 | 23.89° C | 88% | 1011.9 hPa | 0 mm | - | 186 W/m² | - |
| 1778079238 | 23.89° C | 89% | 1011.9 hPa | 0 mm | - | 125 W/m² | - |
| 1778076839 | 23.89° C | 90% | 1012 hPa | 0 mm | - | 56 W/m² | - |
| 1778073853 | 23.89° C | 90% | 1010.6 hPa | 0 mm | - | 54 W/m² | - |
| 1778073208 | 23.89° C | 90% | 1010.6 hPa | 0 mm | - | 32 W/m² | - |
| 1778072004 | 23.33° C | 90% | 1010.2 hPa | 0 mm | - | 56 W/m² | - |
| 1778070860 | 23.33° C | 90% | 1010.3 hPa | 0 mm | - | 30 W/m² | - |
| 1778070223 | 23.33° C | 90% | 1010.4 hPa | 0 mm | - | 21 W/m² | - |
| 1778068446 | 23.33° C | 90% | 1010.4 hPa | 0 mm | - | 0 W/m² | - |
| 1778066655 | 23.33° C | 89% | 1010.2 hPa | 0 mm | - | 0 W/m² | - |
| 1778064225 | 23.33° C | 89% | 1010 hPa | 0 mm | - | 0 W/m² | - |
| 1778063057 | 23.33° C | 90% | 1009.9 hPa | 0 mm | - | 0 W/m² | - |
| 1778060028 | 23.89° C | 88% | 1009.8 hPa | 0 mm | - | 0 W/m² | - |
| 1778059457 | 23.89° C | 88% | 1009.9 hPa | 0 mm | - | 0 W/m² | - |
* Rain latest hour (hover to see other rain measurements)
** Current wind speed in m/s (hover to see current wind gust speed)